| time (UTC) | temp C | wind direction | speed KPH | gust KPH | rain 1hr cm | rain 24hr cm | rain mn cm | humidity % | barometer mb |
| 20260507032507 | 11 | 360 | 1.6 | 3.2 | 0.00 | 0.00 | 0.00 | 64 | 1018.2 |
| 20260507032010 | 12 | 360 | 0.0 | 3.2 | 0.00 | 0.00 | 0.00 | 63 | 1018.3 |
| 20260507031518 | 12 | 360 | 0.0 | 4.8 | 0.00 | 0.00 | 0.00 | 62 | 1018.3 |
| 20260507031009 | 12 | 11 | 1.6 | 6.4 | 0.00 | 0.00 | 0.00 | 61 | 1018.0 |
| 20260507030503 | 12 | 16 | 3.2 | 6.4 | 0.00 | 0.00 | 0.00 | 61 | 1017.7 |
| 20260507030006 | 12 | 360 | 1.6 | 4.8 | 0.00 | 0.00 | 0.00 | 61 | 1017.8 |
| 20260507025505 | 12 | 360 | 1.6 | 8.0 | 0.00 | 0.00 | 0.00 | 60 | 1017.9 |
| 20260507025002 | 12 | 9 | 1.6 | 8.0 | 0.00 | 0.00 | 0.00 | 59 | 1017.8 |
| 20260507024508 | 13 | 36 | 3.2 | 6.4 | 0.00 | 0.00 | 0.00 | 58 | 1017.5 |
| 20260507024008 | 13 | 360 | 3.2 | 6.4 | 0.00 | 0.00 | 0.00 | 58 | 1017.4 |
| 20260507023503 | 13 | 360 | 3.2 | 6.4 | 0.00 | 0.00 | 0.00 | 57 | 1017.3 |
| 20260507023009 | 13 | 360 | 3.2 | 6.4 | 0.00 | 0.00 | 0.00 | 57 | 1017.4 |
| 20260507022505 | 13 | 46 | 3.2 | 8.0 | 0.00 | 0.00 | 0.00 | 57 | 1017.3 |
| 20260507022004 | 13 | 33 | 3.2 | 14.5 | 0.00 | 0.00 | 0.00 | 56 | 1017.3 |
| 20260507021512 | 13 | 360 | 4.8 | 14.5 | 0.00 | 0.00 | 0.00 | 56 | 1017.2 |
| 20260507021008 | 13 | 30 | 8.0 | 17.7 | 0.00 | 0.00 | 0.00 | 55 | 1017.1 |
| 20260507020507 | 14 | 40 | 8.0 | 17.7 | 0.00 | 0.00 | 0.00 | 55 | 1017.0 |
| 20260507020022 | 14 | 21 | 8.0 | 16.1 | 0.00 | 0.00 | 0.00 | 55 | 1017.0 |
| 20260507015507 | 14 | 37 | 9.7 | 16.1 | 0.00 | 0.00 | 0.00 | 55 | 1016.9 |
| 20260507015005 | 14 | 11 | 6.4 | 14.5 | 0.00 | 0.00 | 0.00 | 55 | 1016.9 |
| 20260507014503 | 14 | 352 | 4.8 | 9.7 | 0.00 | 0.00 | 0.00 | 55 | 1016.8 |
| 20260507014004 | 14 | 360 | 4.8 | 14.5 | 0.00 | 0.00 | 0.00 | 55 | 1016.7 |
| 20260507013503 | 14 | 32 | 6.4 | 14.5 | 0.00 | 0.00 | 0.00 | 54 | 1016.7 |
| 20260507013005 | 15 | 12 | 8.0 | 17.7 | 0.00 | 0.00 | 0.00 | 54 | 1016.6 |
| 20260507012507 | 15 | 17 | 6.4 | 17.7 | 0.00 | 0.00 | 0.00 | 53 | 1016.5 |
| 20260507012005 | 15 | 360 | 6.4 | 16.1 | 0.00 | 0.00 | 0.00 | 53 | 1016.4 |
| 20260507011511 | 15 | 20 | 9.7 | 17.7 | 0.00 | 0.00 | 0.00 | 52 | 1016.2 |
| 20260507011008 | 15 | 360 | 9.7 | 17.7 | 0.00 | 0.00 | 0.00 | 52 | 1016.1 |
| 20260507010503 | 15 | 43 | 8.0 | 16.1 | 0.00 | 0.00 | 0.00 | 52 | 1016.2 |
| 20260507010014 | 15 | 26 | 11.3 | 17.7 | 0.00 | 0.00 | 0.00 | 51 | 1016.1 |
| 20260507005507 | 16 | 22 | 11.3 | 19.3 | 0.00 | 0.00 | 0.00 | 51 | 1016.2 |
| 20260507005007 | 16 | 30 | 6.4 | 19.3 | 0.00 | 0.00 | 0.00 | 51 | 1016.2 |
| 20260507004520 | 16 | 13 | 8.0 | 20.9 | 0.00 | 0.00 | 0.00 | 51 | 1016.2 |
| 20260507004010 | 16 | 23 | 11.3 | 20.9 | 0.00 | 0.00 | 0.00 | 50 | 1016.2 |
| 20260507003507 | 16 | 351 | 8.0 | 17.7 | 0.00 | 0.00 | 0.00 | 51 | 1016.2 |
| 20260507003005 | 16 | 30 | 8.0 | 19.3 | 0.00 | 0.00 | 0.00 | 50 | 1016.1 |
| 20260507002502 | 16 | 9 | 6.4 | 19.3 | 0.00 | 0.00 | 0.00 | 50 | 1016.2 |
| 20260507002003 | 16 | 32 | 11.3 | 17.7 | 0.00 | 0.00 | 0.00 | 50 | 1016.1 |
| 20260507001527 | 16 | 352 | 8.0 | 20.9 | 0.00 | 0.00 | 0.00 | 50 | 1016.1 |
| 20260507001004 | 16 | 26 | 11.3 | 24.1 | 0.00 | 0.00 | 0.00 | 49 | 1016.0 |
| 20260507000505 | 16 | 34 | 14.5 | 24.1 | 0.00 | 0.00 | 0.00 | 49 | 1016.0 |
| 20260507000014 | 16 | 22 | 9.7 | 20.9 | 0.00 | 0.00 | 0.00 | 50 | 1015.9 |
| 20260506235504 | 16 | 13 | 9.7 | 20.9 | 0.00 | 0.00 | 0.00 | 49 | 1015.9 |
| 20260506235003 | 17 | 19 | 12.9 | 19.3 | 0.00 | 0.00 | 0.00 | 49 | 1015.8 |
| 20260506234514 | 17 | 49 | 9.7 | 19.3 | 0.00 | 0.00 | 0.00 | 49 | 1015.9 |
| 20260506234006 | 17 | 5 | 8.0 | 20.9 | 0.00 | 0.00 | 0.00 | 49 | 1015.7 |
| 20260506233506 | 17 | 20 | 12.9 | 20.9 | 0.00 | 0.00 | 0.00 | 48 | 1015.8 |
| 20260506233022 | 17 | 34 | 11.3 | 17.7 | 0.00 | 0.00 | 0.00 | 49 | 1015.7 |
| 20260506232509 | 17 | 34 | 12.9 | 17.7 | 0.00 | 0.00 | 0.00 | 48 | 1015.6 |
| 20260506232009 | 17 | 352 | 9.7 | 17.7 | 0.00 | 0.00 | 0.00 | 48 | 1015.5 |
| 20260506231504 | 17 | 9 | 9.7 | 24.1 | 0.00 | 0.00 | 0.00 | 49 | 1015.5 |
| 20260506231004 | 17 | 17 | 9.7 | 24.1 | 0.00 | 0.00 | 0.00 | 48 | 1015.5 |
| 20260506230507 | 17 | 352 | 12.9 | 24.1 | 0.00 | 0.00 | 0.00 | 48 | 1015.5 |
| 20260506230007 | 17 | 360 | 9.7 | 20.9 | 0.00 | 0.00 | 0.00 | 49 | 1015.5 |
| 20260506225503 | 17 | 43 | 8.0 | 17.7 | 0.00 | 0.00 | 0.00 | 49 | 1015.4 |
| 20260506225007 | 17 | 48 | 11.3 | 25.7 | 0.00 | 0.00 | 0.00 | 48 | 1015.5 |
| 20260506224515 | 17 | 49 | 6.4 | 25.7 | 0.00 | 0.00 | 0.00 | 49 | 1015.4 |
| 20260506224007 | 17 | 5 | 11.3 | 25.7 | 0.00 | 0.00 | 0.00 | 49 | 1015.3 |
| 20260506223507 | 17 | 41 | 14.5 | 25.7 | 0.00 | 0.00 | 0.00 | 49 | 1015.3 |
| 20260506223027 | 17 | 23 | 9.7 | 24.1 | 0.00 | 0.00 | 0.00 | 50 | 1015.1 |
| 20260506222510 | 17 | 29 | 11.3 | 24.1 | 0.00 | 0.00 | 0.00 | 50 | 1015.0 |
| 20260506222009 | 17 | 61 | 14.5 | 24.1 | 0.00 | 0.00 | 0.00 | 51 | 1015.0 |
| 20260506221522 | 17 | 5 | 8.0 | 24.1 | 0.00 | 0.00 | 0.00 | 51 | 1015.0 |
| 20260506221007 | 17 | 41 | 16.1 | 24.1 | 0.00 | 0.00 | 0.00 | 50 | 1015.0 |
| 20260506220507 | 16 | 51 | 17.7 | 25.7 | 0.00 | 0.00 | 0.00 | 50 | 1015.1 |
| 20260506220005 | 17 | 56 | 17.7 | 25.7 | 0.00 | 0.00 | 0.00 | 51 | 1015.0 |
| 20260506215504 | 17 | 61 | 9.7 | 24.1 | 0.00 | 0.00 | 0.00 | 51 | 1015.1 |
| 20260506215006 | 17 | 22 | 16.1 | 24.1 | 0.00 | 0.00 | 0.00 | 53 | 1015.2 |
| 20260506214510 | 16 | 28 | 9.7 | 24.1 | 0.00 | 0.00 | 0.00 | 52 | 1015.1 |
| 20260506214004 | 17 | 38 | 14.5 | 33.8 | 0.00 | 0.00 | 0.00 | 52 | 1015.2 |
| 20260506213510 | 16 | 19 | 19.3 | 33.8 | 0.00 | 0.00 | 0.00 | 53 | 1015.2 |
| 20260506213017 | 16 | 46 | 14.5 | 25.7 | 0.00 | 0.00 | 0.00 | 52 | 1015.2 |
| 20260506212507 | 16 | 360 | 16.1 | 24.1 | 0.00 | 0.00 | 0.00 | 52 | 1015.3 |
| 20260506212014 | 16 | 346 | 14.5 | 25.7 | 0.00 | 0.00 | 0.00 | 52 | 1015.3 |
| 20260506211522 | 16 | 37 | 19.3 | 25.7 | 0.00 | 0.00 | 0.00 | 53 | 1015.4 |
| 20260506211010 | 16 | 5 | 8.0 | 20.9 | 0.00 | 0.00 | 0.00 | 53 | 1015.5 |
| 20260506210515 | 16 | 22 | 11.3 | 27.4 | 0.00 | 0.00 | 0.00 | 54 | 1015.5 |
| 20260506210045 | 16 | 31 | 14.5 | 27.4 | 0.00 | 0.00 | 0.00 | 53 | 1015.5 |
| 20260506205512 | 16 | 341 | 11.3 | 24.1 | 0.00 | 0.00 | 0.00 | 53 | 1015.5 |
| 20260506205012 | 16 | 32 | 14.5 | 24.1 | 0.00 | 0.00 | 0.00 | 55 | 1015.6 |
| 20260506204531 | 16 | 5 | 14.5 | 24.1 | 0.00 | 0.00 | 0.00 | 54 | 1015.7 |
| 20260506204004 | 16 | 352 | 17.7 | 24.1 | 0.00 | 0.00 | 0.00 | 54 | 1015.7 |
| 20260506203506 | 16 | 13 | 11.3 | 29.0 | 0.00 | 0.00 | 0.00 | 53 | 1015.8 |
| 20260506203013 | 16 | 39 | 19.3 | 29.0 | 0.00 | 0.00 | 0.00 | 54 | 1015.9 |
| 20260506202506 | 16 | 28 | 14.5 | 24.1 | 0.00 | 0.00 | 0.00 | 53 | 1015.7 |
| 20260506202010 | 16 | 40 | 12.9 | 27.4 | 0.00 | 0.00 | 0.00 | 56 | 1015.9 |
| 20260506201530 | 16 | 55 | 17.7 | 27.4 | 0.00 | 0.00 | 0.00 | 53 | 1015.9 |
| 20260506201008 | 16 | 41 | 8.0 | 25.7 | 0.00 | 0.00 | 0.00 | 55 | 1015.9 |
| 20260506200507 | 16 | 34 | 14.5 | 27.4 | 0.00 | 0.00 | 0.00 | 53 | 1016.0 |
| 20260506200024 | 16 | 19 | 14.5 | 30.6 | 0.00 | 0.00 | 0.00 | 54 | 1016.0 |
| 20260506195507 | 16 | 5 | 19.3 | 30.6 | 0.00 | 0.00 | 0.00 | 53 | 1016.0 |
| 20260506195008 | 16 | 32 | 17.7 | 29.0 | 0.00 | 0.00 | 0.00 | 55 | 1016.0 |
| 20260506194528 | 16 | 341 | 12.9 | 24.1 | 0.00 | 0.00 | 0.00 | 57 | 1016.0 |
| 20260506194010 | 16 | 57 | 16.1 | 27.4 | 0.00 | 0.00 | 0.00 | 55 | 1016.0 |
| 20260506193511 | 16 | 331 | 16.1 | 27.4 | 0.00 | 0.00 | 0.00 | 54 | 1016.1 |
| 20260506193034 | 16 | 350 | 17.7 | 27.4 | 0.00 | 0.00 | 0.00 | 54 | 1016.1 |
| 20260506192507 | 16 | 360 | 11.3 | 25.7 | 0.00 | 0.00 | 0.00 | 54 | 1016.0 |
| 20260506192006 | 16 | 11 | 17.7 | 30.6 | 0.00 | 0.00 | 0.00 | 55 | 1016.2 |
| 20260506191516 | 16 | 338 | 17.7 | 30.6 | 0.00 | 0.00 | 0.00 | 53 | 1016.2 |
| 20260506191006 | 16 | 345 | 16.1 | 27.4 | 0.00 | 0.00 | 0.00 | 55 | 1016.3 |
| 20260506190502 | 16 | 33 | 16.1 | 27.4 | 0.00 | 0.00 | 0.00 | 53 | 1016.2 |
| 20260506190002 | 16 | 66 | 12.9 | 27.4 | 0.00 | 0.00 | 0.00 | 53 | 1016.2 |
| 20260506185505 | 16 | 5 | 17.7 | 29.0 | 0.00 | 0.00 | 0.00 | 53 | 1016.2 |
| 20260506185002 | 15 | 360 | 14.5 | 30.6 | 0.00 | 0.00 | 0.00 | 53 | 1016.3 |
| 20260506184504 | 16 | 352 | 9.7 | 30.6 | 0.00 | 0.00 | 0.00 | 53 | 1016.3 |
| 20260506184002 | 16 | 45 | 17.7 | 27.4 | 0.00 | 0.00 | 0.00 | 52 | 1016.3 |
| 20260506183503 | 16 | 83 | 12.9 | 27.4 | 0.00 | 0.00 | 0.00 | 53 | 1016.4 |
| 20260506183026 | 16 | 56 | 14.5 | 32.2 | 0.00 | 0.00 | 0.00 | 54 | 1016.5 |
| 20260506182506 | 15 | 53 | 14.5 | 32.2 | 0.00 | 0.00 | 0.00 | 53 | 1016.5 |
| 20260506182012 | 15 | 49 | 8.0 | 24.1 | 0.00 | 0.00 | 0.00 | 53 | 1016.6 |
| 20260506181519 | 15 | 30 | 14.5 | 27.4 | 0.00 | 0.00 | 0.00 | 52 | 1016.6 |
| 20260506181008 | 16 | 99 | 9.7 | 27.4 | 0.00 | 0.00 | 0.00 | 55 | 1016.7 |
| 20260506180506 | 15 | 65 | 14.5 | 29.0 | 0.00 | 0.00 | 0.00 | 55 | 1016.7 |
| 20260506180016 | 15 | 360 | 11.3 | 29.0 | 0.00 | 0.00 | 0.00 | 55 | 1016.8 |
| 20260506175509 | 15 | 83 | 14.5 | 27.4 | 0.00 | 0.00 | 0.00 | 54 | 1016.8 |
| 20260506175003 | 15 | 60 | 6.4 | 25.7 | 0.00 | 0.00 | 0.00 | 56 | 1016.9 |
| 20260506174503 | 15 | 360 | 11.3 | 27.4 | 0.00 | 0.00 | 0.00 | 56 | 1017.0 |
| 20260506174003 | 15 | 360 | 17.7 | 27.4 | 0.00 | 0.00 | 0.00 | 55 | 1017.1 |
| 20260506173504 | 14 | 360 | 17.7 | 27.4 | 0.00 | 0.00 | 0.00 | 56 | 1017.1 |
| 20260506173007 | 14 | 360 | 16.1 | 25.7 | 0.00 | 0.00 | 0.00 | 57 | 1017.1 |
| 20260506172503 | 14 | 360 | 14.5 | 27.4 | 0.00 | 0.00 | 0.00 | 57 | 1017.1 |
| 20260506172006 | 14 | 360 | 17.7 | 29.0 | 0.00 | 0.00 | 0.00 | 58 | 1017.1 |
| 20260506171508 | 13 | 360 | 16.1 | 29.0 | 0.00 | 0.00 | 0.00 | 59 | 1017.0 |
| 20260506171008 | 13 | 25 | 17.7 | 29.0 | 0.00 | 0.00 | 0.00 | 60 | 1017.1 |
| 20260506170505 | 13 | 360 | 17.7 | 27.4 | 0.00 | 0.00 | 0.00 | 59 | 1017.0 |
| 20260506170022 | 13 | 360 | 17.7 | 27.4 | 0.00 | 0.00 | 0.00 | 60 | 1017.0 |
| 20260506165506 | 13 | 360 | 17.7 | 29.0 | 0.00 | 0.00 | 0.00 | 60 | 1017.0 |
| 20260506165007 | 13 | 360 | 16.1 | 30.6 | 0.00 | 0.00 | 0.00 | 61 | 1017.0 |
| 20260506164538 | 13 | 360 | 16.1 | 30.6 | 0.00 | 0.00 | 0.00 | 62 | 1017.1 |
| 20260506164011 | 12 | 360 | 19.3 | 29.0 | 0.00 | 0.00 | 0.00 | 63 | 1017.2 |
| 20260506163508 | 12 | 360 | 19.3 | 30.6 | 0.00 | 0.00 | 0.00 | 64 | 1017.4 |
| 20260506163009 | 12 | 360 | 19.3 | 30.6 | 0.00 | 0.00 | 0.00 | 63 | 1017.3 |
| 20260506162510 | 12 | 360 | 16.1 | 29.0 | 0.00 | 0.00 | 0.00 | 64 | 1017.4 |
| 20260506162004 | 12 | 360 | 16.1 | 30.6 | 0.00 | 0.00 | 0.00 | 63 | 1017.4 |
| 20260506161508 | 12 | 360 | 19.3 | 30.6 | 0.00 | 0.00 | 0.00 | 65 | 1017.3 |
| 20260506161004 | 12 | 360 | 19.3 | 30.6 | 0.00 | 0.00 | 0.00 | 64 | 1017.3 |
| 20260506160506 | 12 | 360 | 17.7 | 29.0 | 0.00 | 0.00 | 0.00 | 66 | 1017.3 |
| 20260506160012 | 12 | 360 | 17.7 | 30.6 | 0.00 | 0.00 | 0.00 | 67 | 1017.2 |
| 20260506155508 | 11 | 360 | 17.7 | 30.6 | 0.00 | 0.00 | 0.00 | 67 | 1017.3 |
| 20260506155007 | 11 | 360 | 19.3 | 29.0 | 0.00 | 0.00 | 0.00 | 69 | 1017.3 |
| 20260506154516 | 11 | 38 | 17.7 | 27.4 | 0.00 | 0.00 | 0.00 | 70 | 1017.1 |
| 20260506154006 | 11 | 29 | 16.1 | 25.7 | 0.00 | 0.00 | 0.00 | 72 | 1017.2 |
| 20260506153507 | 11 | 34 | 14.5 | 25.7 | 0.00 | 0.00 | 0.00 | 72 | 1017.3 |
| 20260506153021 | 11 | 53 | 16.1 | 30.6 | 0.00 | 0.00 | 0.00 | 72 | 1017.0 |
| 20260506152508 | 10 | 360 | 19.3 | 30.6 | 0.00 | 0.00 | 0.00 | 71 | 1017.0 |
| 20260506152010 | 10 | 56 | 17.7 | 33.8 | 0.00 | 0.00 | 0.00 | 71 | 1017.0 |
| 20260506151504 | 11 | 63 | 17.7 | 33.8 | 0.00 | 0.00 | 0.00 | 72 | 1016.9 |
| 20260506151003 | 10 | 38 | 17.7 | 30.6 | 0.00 | 0.00 | 0.00 | 72 | 1016.8 |
| 20260506150504 | 10 | 38 | 17.7 | 30.6 | 0.00 | 0.00 | 0.00 | 73 | 1016.8 |
| 20260506150007 | 10 | 51 | 20.9 | 30.6 | 0.00 | 0.00 | 0.00 | 72 | 1016.7 |
| 20260506145505 | 10 | 38 | 17.7 | 29.0 | 0.00 | 0.00 | 0.00 | 73 | 1016.7 |
| 20260506145012 | 10 | 28 | 20.9 | 30.6 | 0.00 | 0.00 | 0.00 | 74 | 1016.5 |
| 20260506144521 | 10 | 360 | 20.9 | 30.6 | 0.00 | 0.00 | 0.00 | 73 | 1016.5 |
| 20260506144013 | 10 | 360 | 17.7 | 32.2 | 0.00 | 0.00 | 0.00 | 75 | 1016.4 |
| 20260506143508 | 10 | 19 | 19.3 | 37.0 | 0.00 | 0.00 | 0.00 | 76 | 1016.4 |
| 20260506143019 | 10 | 52 | 24.1 | 37.0 | 0.00 | 0.00 | 0.00 | 75 | 1016.3 |
| 20260506142513 | 10 | 38 | 20.9 | 32.2 | 0.00 | 0.00 | 0.00 | 75 | 1016.2 |
| 20260506142009 | 10 | 52 | 14.5 | 27.4 | 0.00 | 0.00 | 0.00 | 77 | 1016.0 |
| 20260506141529 | 10 | 360 | 16.1 | 32.2 | 0.00 | 0.00 | 0.00 | 77 | 1016.1 |
| 20260506141007 | 10 | 360 | 16.1 | 32.2 | 0.00 | 0.00 | 0.00 | 78 | 1016.2 |
| 20260506140512 | 9 | 360 | 19.3 | 32.2 | 0.00 | 0.00 | 0.00 | 78 | 1016.2 |
| 20260506140007 | 9 | 360 | 14.5 | 30.6 | 0.00 | 0.00 | 0.00 | 79 | 1016.2 |
| 20260506135503 | 9 | 360 | 19.3 | 30.6 | 0.00 | 0.00 | 0.00 | 79 | 1016.4 |
| 20260506135003 | 9 | 360 | 19.3 | 29.0 | 0.00 | 0.00 | 0.00 | 79 | 1016.3 |
| 20260506134510 | 9 | 360 | 20.9 | 29.0 | 0.00 | 0.00 | 0.00 | 79 | 1016.3 |
| 20260506134008 | 9 | 360 | 17.7 | 29.0 | 0.00 | 0.00 | 0.00 | 79 | 1016.4 |
| 20260506133508 | 9 | 360 | 16.1 | 29.0 | 0.00 | 0.00 | 0.00 | 79 | 1016.3 |
| 20260506133014 | 9 | 360 | 17.7 | 27.4 | 0.00 | 0.00 | 0.00 | 79 | 1016.5 |
| 20260506132508 | 9 | 360 | 16.1 | 30.6 | 0.00 | 0.00 | 0.00 | 80 | 1016.5 |
| 20260506132007 | 9 | 360 | 19.3 | 30.6 | 0.00 | 0.00 | 0.00 | 79 | 1016.4 |
| 20260506131519 | 9 | 360 | 16.1 | 30.6 | 0.00 | 0.00 | 0.00 | 80 | 1016.4 |
| 20260506131010 | 9 | 360 | 12.9 | 32.2 | 0.00 | 0.00 | 0.00 | 81 | 1016.5 |
| 20260506130509 | 8 | 360 | 16.1 | 32.2 | 0.00 | 0.00 | 0.00 | 80 | 1016.5 |
| 20260506130026 | 8 | 360 | 16.1 | 27.4 | 0.00 | 0.00 | 0.00 | 81 | 1016.4 |
| 20260506125514 | 8 | 360 | 19.3 | 27.4 | 0.00 | 0.00 | 0.00 | 82 | 1016.4 |
| 20260506125007 | 8 | 360 | 17.7 | 27.4 | 0.00 | 0.00 | 0.00 | 82 | 1016.2 |
| 20260506124526 | 8 | 360 | 16.1 | 27.4 | 0.00 | 0.00 | 0.00 | 82 | 1016.0 |
| 20260506124006 | 8 | 360 | 17.7 | 27.4 | 0.00 | 0.00 | 0.00 | 82 | 1016.1 |
| 20260506123506 | 8 | 360 | 17.7 | 27.4 | 0.00 | 0.00 | 0.00 | 82 | 1016.0 |
| 20260506123014 | 8 | 360 | 17.7 | 27.4 | 0.00 | 0.00 | 0.00 | 83 | 1016.0 |
| 20260506122508 | 8 | 360 | 16.1 | 24.1 | 0.00 | 0.00 | 0.00 | 83 | 1015.9 |
| 20260506122010 | 8 | 360 | 12.9 | 24.1 | 0.00 | 0.00 | 0.00 | 83 | 1015.5 |
| 20260506121516 | 8 | 360 | 16.1 | 24.1 | 0.00 | 0.00 | 0.00 | 83 | 1015.4 |
| 20260506121008 | 8 | 360 | 14.5 | 24.1 | 0.00 | 0.00 | 0.00 | 83 | 1015.2 |
| 20260506120511 | 8 | 360 | 16.1 | 24.1 | 0.00 | 0.00 | 0.00 | 83 | 1015.2 |
| 20260506120041 | 8 | 360 | 14.5 | 24.1 | 0.00 | 0.00 | 0.00 | 82 | 1015.1 |
| 20260506115506 | 8 | 360 | 14.5 | 24.1 | 0.00 | 0.00 | 0.00 | 82 | 1015.1 |
| 20260506115009 | 8 | 360 | 16.1 | 24.1 | 0.00 | 0.00 | 0.00 | 82 | 1015.1 |
| 20260506114526 | 8 | 360 | 9.7 | 22.5 | 0.00 | 0.00 | 0.00 | 82 | 1015.1 |
| 20260506114012 | 8 | 360 | 11.3 | 24.1 | 0.00 | 0.00 | 0.00 | 82 | 1015.0 |
| 20260506113511 | 8 | 360 | 14.5 | 24.1 | 0.00 | 0.00 | 0.00 | 82 | 1015.1 |
| 20260506113026 | 8 | 360 | 14.5 | 25.7 | 0.00 | 0.00 | 0.00 | 82 | 1015.1 |
| 20260506112512 | 8 | 360 | 16.1 | 25.7 | 0.00 | 0.00 | 0.00 | 81 | 1014.7 |
| 20260506112006 | 8 | 360 | 12.9 | 24.1 | 0.00 | 0.00 | 0.00 | 81 | 1014.6 |
| 20260506111519 | 8 | 360 | 11.3 | 24.1 | 0.00 | 0.00 | 0.00 | 81 | 1014.7 |
| 20260506111007 | 8 | 360 | 14.5 | 24.1 | 0.00 | 0.00 | 0.00 | 81 | 1014.7 |
| 20260506110508 | 8 | 360 | 16.1 | 24.1 | 0.00 | 0.00 | 0.00 | 81 | 1014.6 |
| 20260506110018 | 8 | 360 | 11.3 | 25.7 | 0.00 | 0.00 | 0.00 | 81 | 1014.6 |
| 20260506105508 | 8 | 360 | 11.3 | 25.7 | 0.00 | 0.00 | 0.00 | 81 | 1014.6 |
| 20260506105011 | 8 | 360 | 14.5 | 24.1 | 0.00 | 0.00 | 0.00 | 81 | 1014.9 |
| 20260506104537 | 8 | 360 | 11.3 | 25.7 | 0.00 | 0.00 | 0.00 | 80 | 1015.1 |
| 20260506104011 | 8 | 360 | 16.1 | 25.7 | 0.00 | 0.00 | 0.00 | 80 | 1015.3 |
| 20260506103511 | 8 | 360 | 12.9 | 24.1 | 0.00 | 0.00 | 0.00 | 80 | 1015.1 |
| 20260506103037 | 8 | 341 | 12.9 | 20.9 | 0.00 | 0.00 | 0.00 | 80 | 1015.4 |
| 20260506102515 | 8 | 360 | 8.0 | 24.1 | 0.00 | 0.00 | 0.00 | 80 | 1015.3 |
| 20260506102003 | 8 | 360 | 14.5 | 24.1 | 0.00 | 0.00 | 0.00 | 79 | 1015.0 |
| 20260506101506 | 8 | 360 | 12.9 | 22.5 | 0.00 | 0.00 | 0.00 | 79 | 1014.9 |
| 20260506101003 | 8 | 360 | 9.7 | 19.3 | 0.00 | 0.00 | 0.00 | 79 | 1015.2 |
| 20260506100502 | 8 | 15 | 11.3 | 19.3 | 0.00 | 0.00 | 0.00 | 79 | 1015.2 |
| 20260506100005 | 8 | 360 | 8.0 | 19.3 | 0.00 | 0.00 | 0.00 | 79 | 1015.1 |
| 20260506095505 | 8 | 360 | 8.0 | 19.3 | 0.00 | 0.00 | 0.00 | 78 | 1015.2 |
| 20260506095004 | 8 | 360 | 6.4 | 16.1 | 0.00 | 0.00 | 0.00 | 78 | 1015.1 |
| 20260506094504 | 8 | 360 | 9.7 | 16.1 | 0.00 | 0.00 | 0.00 | 78 | 1015.0 |
| 20260506094002 | 8 | 360 | 8.0 | 14.5 | 0.00 | 0.00 | 0.00 | 77 | 1014.9 |
| 20260506093504 | 8 | 360 | 6.4 | 16.1 | 0.00 | 0.00 | 0.00 | 77 | 1014.7 |
| 20260506093016 | 8 | 360 | 8.0 | 19.3 | 0.00 | 0.00 | 0.00 | 76 | 1014.5 |
| 20260506092504 | 8 | 360 | 9.7 | 22.5 | 0.00 | 0.00 | 0.00 | 76 | 1014.4 |
| 20260506092007 | 8 | 360 | 12.9 | 22.5 | 0.00 | 0.00 | 0.00 | 76 | 1014.2 |
| 20260506091506 | 8 | 360 | 12.9 | 24.1 | 0.00 | 0.00 | 0.00 | 75 | 1014.2 |
| 20260506091004 | 8 | 46 | 12.9 | 24.1 | 0.00 | 0.00 | 0.00 | 75 | 1014.0 |
| 20260506090504 | 8 | 360 | 12.9 | 19.3 | 0.00 | 0.00 | 0.00 | 75 | 1014.1 |
| 20260506090005 | 8 | 360 | 9.7 | 19.3 | 0.00 | 0.00 | 0.00 | 75 | 1014.2 |
| 20260506085503 | 8 | 360 | 9.7 | 20.9 | 0.00 | 0.00 | 0.00 | 75 | 1014.2 |
| 20260506085002 | 8 | 360 | 11.3 | 20.9 | 0.00 | 0.00 | 0.00 | 75 | 1013.9 |
| 20260506084511 | 8 | 28 | 12.9 | 20.9 | 0.00 | 0.00 | 0.00 | 75 | 1013.9 |
| 20260506084006 | 8 | 360 | 11.3 | 22.5 | 0.00 | 0.00 | 0.00 | 74 | 1013.9 |
| 20260506083502 | 8 | 360 | 11.3 | 27.4 | 0.00 | 0.00 | 0.00 | 74 | 1013.6 |
| 20260506083010 | 8 | 360 | 12.9 | 27.4 | 0.00 | 0.00 | 0.00 | 74 | 1013.7 |
| 20260506082504 | 8 | 27 | 14.5 | 27.4 | 0.00 | 0.00 | 0.00 | 73 | 1013.4 |
| 20260506082004 | 8 | 360 | 14.5 | 24.1 | 0.00 | 0.00 | 0.00 | 73 | 1013.2 |
| 20260506081506 | 8 | 360 | 12.9 | 24.1 | 0.00 | 0.00 | 0.00 | 73 | 1013.2 |
| 20260506081010 | 8 | 360 | 9.7 | 20.9 | 0.00 | 0.00 | 0.00 | 74 | 1013.2 |
| 20260506080506 | 8 | 360 | 12.9 | 22.5 | 0.00 | 0.00 | 0.00 | 74 | 1013.0 |
| 20260506073507 | 9 | 360 | 17.7 | 30.6 | 0.00 | 0.00 | 0.00 | 71 | 1012.2 |
| 20260506073010 | 9 | 360 | 16.1 | 30.6 | 0.00 | 0.00 | 0.00 | 71 | 1012.1 |
| 20260506072507 | 9 | 360 | 12.9 | 30.6 | 0.00 | 0.00 | 0.00 | 71 | 1012.2 |
| 20260506072010 | 9 | 360 | 16.1 | 30.6 | 0.00 | 0.00 | 0.00 | 71 | 1012.5 |
| 20260506071516 | 9 | 34 | 11.3 | 24.1 | 0.00 | 0.00 | 0.00 | 71 | 1012.4 |
| 20260506071005 | 9 | 42 | 14.5 | 24.1 | 0.00 | 0.00 | 0.00 | 71 | 1012.2 |
| 20260506070502 | 9 | 360 | 14.5 | 25.7 | 0.00 | 0.00 | 0.00 | 71 | 1012.4 |
| 20260506062506 | 9 | 360 | 14.5 | 30.6 | 0.00 | 0.00 | 0.00 | 70 | 1012.4 |
| 20260506062007 | 9 | 360 | 11.3 | 25.7 | 0.00 | 0.00 | 0.00 | 69 | 1012.4 |
| 20260506061510 | 9 | 360 | 14.5 | 29.0 | 0.00 | 0.00 | 0.00 | 69 | 1012.5 |
| 20260506061006 | 9 | 360 | 19.3 | 29.0 | 0.00 | 0.00 | 0.00 | 68 | 1012.5 |
| 20260506060505 | 9 | 360 | 17.7 | 29.0 | 0.00 | 0.00 | 0.00 | 68 | 1012.6 |
| 20260506051010 | 9 | 360 | 17.7 | 30.6 | 0.00 | 0.00 | 0.00 | 73 | 1012.4 |
| 20260506050507 | 9 | 360 | 19.3 | 30.6 | 0.00 | 0.00 | 0.00 | 73 | 1012.3 |
| 20260506045010 | 9 | 360 | 16.1 | 29.0 | 0.00 | 0.00 | 0.00 | 76 | 1012.2 |
| 20260506044519 | 9 | 360 | 14.5 | 35.4 | 0.00 | 0.00 | 0.00 | 76 | 1012.1 |
| 20260506044007 | 9 | 360 | 19.3 | 35.4 | 0.00 | 0.00 | 0.00 | 76 | 1012.3 |
| 20260506043505 | 9 | 360 | 19.3 | 35.4 | 0.00 | 0.00 | 0.00 | 77 | 1012.4 |
| 20260506043010 | 9 | 360 | 14.5 | 27.4 | 0.00 | 0.00 | 0.00 | 78 | 1012.5 |
| 20260506042506 | 9 | 360 | 16.1 | 29.0 | 0.00 | 0.00 | 0.00 | 78 | 1012.5 |
| 20260506042009 | 9 | 360 | 17.7 | 29.0 | 0.00 | 0.00 | 0.00 | 78 | 1012.7 |
| 20260506041502 | 9 | 360 | 17.7 | 27.4 | 0.00 | 0.00 | 0.00 | 79 | 1012.4 |
| 20260506041003 | 9 | 360 | 14.5 | 25.7 | 0.00 | 0.00 | 0.00 | 80 | 1012.6 |
| 20260506040502 | 9 | 360 | 19.3 | 29.0 | 0.00 | 0.00 | 0.00 | 80 | 1012.7 |
| 20260506040002 | 9 | 360 | 19.3 | 29.0 | 0.00 | 0.00 | 0.00 | 80 | 1012.4 |
| 20260506035503 | 9 | 360 | 11.3 | 30.6 | 0.00 | 0.00 | 0.00 | 80 | 1012.5 |
| 20260506035003 | 9 | 360 | 19.3 | 33.8 | 0.00 | 0.00 | 0.00 | 80 | 1012.3 |
| 20260506034504 | 9 | 360 | 20.9 | 32.2 | 0.00 | 0.00 | 0.00 | 80 | 1012.2 |
| 20260506034004 | 9 | 360 | 20.9 | 32.2 | 0.00 | 0.00 | 0.00 | 81 | 1012.4 |
| 20260506033504 | 9 | 360 | 19.3 | 32.2 | 0.00 | 0.00 | 0.00 | 81 | 1012.2 |
| 20260506033019 | 9 | 360 | 19.3 | 32.2 | 0.00 | 0.00 | 0.00 | 82 | 1012.2 |